Location: Newark
(35.8833°N, 14.5000°E)
Time: 09:36:01
(UTC+00:00)

Altair - Pass Details

Date: 25 November 2019
Orbit: 1502 x 1682 km, 47.2° (Epoch: 06 December)

Event Time Altitude Azimuth Distance (km) Brightness Sun altitude
Rises 07:46:44 0° 300° (WNW) 4,655 9.4 18.9°
Reaches altitude 10° 07:49:55 10° 294° (WNW) 3,685 9.0 19.3°
Maximum altitude 07:58:26 42° 227° (SW) 2,087 8.5 20.5°
Drops below altitude 10° 08:07:14 10° 161° (SSE) 3,792 11.1 21.7°
Sets 08:10:35 0° 154° (SSE) 4,802 11.5 22.1°
